Simultaneous Nadir Overpasses (SNOs) Predictions

Prediction of SNOs between GOES-16 and METOP-C Satellite Orbit:

Table of predicted SNOs for the next 14.0 days since TLE Epoch: 5/27/2024
Index Date Time (GOES-16) GOES-16 Lat,Lon METOP-C Lat,Lon Distance(km) Time Diff (sec)
1 05/28/2024 14:34:33 0.05, -75.20 0.34, -76.44 141.25 80
2 05/29/2024 14:16:35 0.05, -75.20 -0.79, -71.45 427.58 80
3 05/31/2024 02:35:37 -0.05, -75.19 -0.21, -76.05 97.51 80
4 06/01/2024 02:12:17 -0.05, -75.19 0.86, -71.05 471.83 80
5 06/02/2024 14:31:10 0.05, -75.21 0.14, -75.61 45.98 80
6 06/05/2024 02:29:32 -0.04, -75.21 -0.06, -75.21 1.64 80
7 06/07/2024 14:30:25 0.03, -75.23 -0.05, -74.77 52.17 80
8 06/09/2024 02:49:28 -0.02, -75.24 -0.94, -79.38 471.02 80
9 06/10/2024 02:26:08 -0.02, -75.25 0.15, -74.38 99.39 80
